| time (UTC) | temp F | wind direction | speed MPH | gust MPH | rain 1hr in | rain 24hr in | rain mn in | humidity % | barometer mb |
| 20260506044543 | 53 | 246 | 0.0 | 2.0 | 0.00 | 0.00 | 0.00 | 85 | 1016.0 |
| 20260506041530 | 56 | 209 | 0.0 | 3.0 | 0.00 | 0.00 | 0.00 | 78 | 1015.7 |
| 20260506040039 | 59 | 247 | 0.0 | 2.0 | 0.00 | 0.00 | 0.00 | 74 | 1015.4 |
| 20260506034545 | 60 | 314 | 2.0 | 6.0 | 0.00 | 0.00 | 0.00 | 72 | 1015.1 |
| 20260506033030 | 61 | 312 | 3.0 | 7.0 | 0.00 | 0.00 | 0.00 | 71 | 1014.8 |
| 20260506031546 | 62 | 303 | 3.0 | 6.0 | 0.00 | 0.00 | 0.00 | 69 | 1014.6 |
| 20260506030041 | 64 | 289 | 3.0 | 11.0 | 0.00 | 0.00 | 0.00 | 66 | 1014.2 |
| 20260506024537 | 65 | 293 | 5.0 | 11.0 | 0.00 | 0.00 | 0.00 | 64 | 1014.1 |
| 20260506023029 | 67 | 307 | 5.0 | 12.0 | 0.00 | 0.00 | 0.00 | 62 | 1013.9 |
| 20260506021531 | 68 | 313 | 5.0 | 12.0 | 0.00 | 0.00 | 0.00 | 61 | 1013.8 |
| 20260506020039 | 69 | 317 | 5.0 | 8.0 | 0.00 | 0.00 | 0.00 | 60 | 1013.5 |
| 20260506014531 | 70 | 316 | 5.0 | 11.0 | 0.00 | 0.00 | 0.00 | 58 | 1013.5 |
| 20260506013037 | 70 | 324 | 5.0 | 11.0 | 0.00 | 0.00 | 0.00 | 57 | 1013.4 |
| 20260506011606 | 71 | 346 | 2.0 | 6.0 | 0.00 | 0.00 | 0.00 | 57 | 1013.4 |
| 20260506010031 | 71 | 314 | 4.0 | 12.0 | 0.00 | 0.00 | 0.00 | 56 | 1013.4 |
| 20260506003037 | 72 | 302 | 7.0 | 13.0 | 0.00 | 0.00 | 0.00 | 55 | 1013.3 |
| 20260506000038 | 72 | 296 | 7.0 | 12.0 | 0.00 | 0.00 | 0.00 | 55 | 1013.5 |
| 20260505234539 | 73 | 295 | 6.0 | 13.0 | 0.00 | 0.00 | 0.00 | 54 | 1013.6 |
| 20260505231541 | 72 | 291 | 5.0 | 12.0 | 0.00 | 0.00 | 0.00 | 56 | 1013.7 |
| 20260505230038 | 72 | 289 | 7.0 | 17.0 | 0.00 | 0.00 | 0.00 | 55 | 1013.8 |
| 20260505224538 | 73 | 295 | 6.0 | 13.0 | 0.00 | 0.00 | 0.00 | 55 | 1014.0 |
| 20260505223110 | 72 | 297 | 6.0 | 14.0 | 0.00 | 0.00 | 0.00 | 56 | 1014.0 |
| 20260505221531 | 71 | 297 | 6.0 | 12.0 | 0.00 | 0.00 | 0.00 | 57 | 1014.2 |
| 20260505220036 | 71 | 292 | 8.0 | 16.0 | 0.00 | 0.00 | 0.00 | 57 | 1014.4 |
| 20260505211530 | 71 | 292 | 6.0 | 15.0 | 0.00 | 0.00 | 0.00 | 57 | 1014.6 |
| 20260505210038 | 71 | 293 | 6.0 | 14.0 | 0.00 | 0.00 | 0.00 | 58 | 1014.7 |
| 20260505204537 | 70 | 293 | 6.0 | 12.0 | 0.00 | 0.00 | 0.00 | 58 | 1014.9 |
| 20260505203039 | 70 | 297 | 6.0 | 13.0 | 0.00 | 0.00 | 0.00 | 59 | 1015.0 |
| 20260505201528 | 69 | 302 | 7.0 | 14.0 | 0.00 | 0.00 | 0.00 | 60 | 1015.1 |
| 20260505200038 | 68 | 296 | 6.0 | 15.0 | 0.00 | 0.00 | 0.00 | 61 | 1015.2 |
| 20260505194532 | 67 | 293 | 7.0 | 17.0 | 0.00 | 0.00 | 0.00 | 62 | 1015.3 |
| 20260505193036 | 67 | 302 | 7.0 | 14.0 | 0.00 | 0.00 | 0.00 | 63 | 1015.4 |
| 20260505191537 | 67 | 297 | 7.0 | 14.0 | 0.00 | 0.00 | 0.00 | 63 | 1015.5 |
| 20260505190029 | 66 | 299 | 7.0 | 15.0 | 0.00 | 0.00 | 0.00 | 64 | 1015.5 |
| 20260505180030 | 65 | 296 | 7.0 | 15.0 | 0.00 | 0.00 | 0.00 | 66 | 1015.7 |
| 20260505174536 | 64 | 297 | 7.0 | 16.0 | 0.00 | 0.00 | 0.00 | 67 | 1015.7 |
| 20260505173036 | 63 | 294 | 7.0 | 17.0 | 0.00 | 0.00 | 0.00 | 68 | 1015.7 |
| 20260505171610 | 63 | 292 | 7.0 | 14.0 | 0.00 | 0.00 | 0.00 | 69 | 1015.7 |
| 20260505170042 | 62 | 298 | 8.0 | 15.0 | 0.00 | 0.00 | 0.00 | 69 | 1015.7 |
| 20260505163035 | 61 | 294 | 7.0 | 17.0 | 0.00 | 0.00 | 0.00 | 71 | 1015.6 |
| 20260505161537 | 61 | 292 | 6.0 | 14.0 | 0.00 | 0.00 | 0.00 | 71 | 1015.7 |
| 20260505153036 | 60 | 293 | 5.0 | 11.0 | 0.00 | 0.00 | 0.00 | 74 | 1015.6 |
| 20260505124530 | 51 | 270 | 2.0 | 6.0 | 0.00 | 0.00 | 0.00 | 92 | 1014.7 |
| 20260505123030 | 51 | 284 | 0.0 | 3.0 | 0.00 | 0.00 | 0.00 | 92 | 1014.7 |
| 20260505120106 | 51 | 158 | 2.0 | 5.0 | 0.00 | 0.00 | 0.00 | 91 | 1014.5 |
| 20260505114608 | 52 | 140 | 2.0 | 5.0 | 0.00 | 0.00 | 0.00 | 91 | 1014.4 |
| 20260505113107 | 52 | 279 | 1.0 | 5.0 | 0.00 | 0.00 | 0.00 | 92 | 1014.4 |
| 20260505111645 | 51 | 215 | 1.0 | 4.0 | 0.00 | 0.00 | 0.00 | 91 | 1014.2 |
| 20260505101537 | 54 | 259 | 0.0 | 5.0 | 0.00 | 0.00 | 0.00 | 89 | 1013.7 |
| 20260505100107 | 53 | 307 | 1.0 | 7.0 | 0.00 | 0.00 | 0.00 | 89 | 1013.8 |
| 20260505094531 | 53 | 180 | 1.0 | 4.0 | 0.00 | 0.00 | 0.00 | 86 | 1013.6 |
| 20260505093108 | 55 | 179 | 0.0 | 4.0 | 0.00 | 0.00 | 0.00 | 84 | 1013.5 |
| 20260505090037 | 58 | 262 | 2.0 | 7.0 | 0.00 | 0.00 | 0.00 | 84 | 1013.1 |
| 20260505083037 | 55 | 268 | 2.0 | 5.0 | 0.00 | 0.00 | 0.00 | 89 | 1013.1 |
| 20260505081530 | 54 | 147 | 0.0 | 5.0 | 0.00 | 0.00 | 0.00 | 89 | 1013.0 |
| 20260505080030 | 54 | 281 | 1.0 | 3.0 | 0.00 | 0.00 | 0.00 | 88 | 1012.9 |
| 20260505074536 | 54 | 258 | 1.0 | 3.0 | 0.00 | 0.00 | 0.00 | 86 | 1012.8 |
| 20260505073111 | 55 | 157 | 0.0 | 0.0 | 0.00 | 0.00 | 0.00 | 85 | 1012.7 |
| 20260505071531 | 56 | 157 | 0.0 | 0.0 | 0.00 | 0.00 | 0.00 | 82 | 1012.6 |
| 20260505070031 | 58 | 157 | 0.0 | 4.0 | 0.00 | 0.00 | 0.00 | 78 | 1012.5 |
| 20260505064528 | 60 | 170 | 0.0 | 4.0 | 0.00 | 0.00 | 0.00 | 74 | 1012.3 |
| 20260505063029 | 62 | 211 | 2.0 | 5.0 | 0.00 | 0.00 | 0.00 | 73 | 1012.2 |
| 20260505061618 | 62 | 213 | 2.0 | 5.0 | 0.00 | 0.00 | 0.00 | 73 | 1012.2 |
| 20260505060055 | 60 | 188 | 3.0 | 8.0 | 0.00 | 0.00 | 0.00 | 76 | 1012.2 |